Cosmos 1461 - Orbit

View from above orbital plane
View from above orbital plane
View from above satellite
View from above satellite

Ground track
Ground track

The orbit data is extracted from the following two-line orbital elements,

1 14064U 83044A   13139.52508894  .00003522  00000-0  35710-3 0  1782
2 14064 065.0053 191.7422 0137364 272.9330 235.5324 14.85739722501325
Epoch (UTC): 19 May 2013 12:36:07
Eccentricity: 0.0137364
inclination: 65.0053°
perigee height: 515 km
apogee height: 707 km
right ascension of ascending node: 191.7422°
argument of perigee: 272.9330°
revolutions per day: 14.85739722
mean anomaly at epoch: 235.5324°
orbit number at epoch: 50132

The dashed part of the orbit path shows where the satellite is in the earth's shadow,  

Developed and maintained by Chris Peat, Heavens-Above GmbH. Please read the updated FAQ before sending e-mail. Imprint. DLR